Meteo orario Abadan

Oggi, 5 Marzo, Venerdi

Tempo Temperatura Precipitazioni Vento Pressione Umidità
00:00 +22°C° 0 mm 6 m/s 757 mm Hg 49%
01:00 +21°C° 0.1 mm 5 m/s 758 mm Hg 54%
02:00 +21°C° 0.1 mm 4 m/s 758 mm Hg 59%
03:00 +20°C° 0 mm 3 m/s 758 mm Hg 67%
04:00 +20°C° 0 mm 4 m/s 759 mm Hg 58%
05:00 +19°C° 0 mm 5 m/s 760 mm Hg 50%
06:00 +18°C° 0 mm 7 m/s 761 mm Hg 42%
07:00 +18°C° 0 mm 7 m/s 761 mm Hg 37%
08:00 +20°C° 0 mm 8 m/s 762 mm Hg 32%
09:00 +21°C° 0 mm 8 m/s 763 mm Hg 27%
10:00 +22°C° 0 mm 8 m/s 763 mm Hg 26%
11:00 +23°C° 0 mm 8 m/s 763 mm Hg 25%
12:00 +23°C° 0 mm 8 m/s 763 mm Hg 25%
13:00 +24°C° 0 mm 7 m/s 763 mm Hg 25%
14:00 +24°C° 0 mm 7 m/s 762 mm Hg 25%
15:00 +26°C° 0 mm 7 m/s 762 mm Hg 25%
16:00 +24°C° 0 mm 7 m/s 762 mm Hg 27%
17:00 +23°C° 0 mm 6 m/s 763 mm Hg 29%
18:00 +23°C° 0 mm 5 m/s 763 mm Hg 31%
19:00 +22°C° 0 mm 5 m/s 764 mm Hg 34%
20:00 +21°C° 0 mm 5 m/s 764 mm Hg 37%
21:00 +21°C° 0 mm 5 m/s 765 mm Hg 40%
22:00 +20°C° 0 mm 4 m/s 765 mm Hg 43%
23:00 +19°C° 0 mm 4 m/s 765 mm Hg 46%

Domani, 6 Marzo, Sabato

Tempo Temperatura Precipitazioni Vento Pressione Umidità
00:00 +19°C° 0 mm 3 m/s 765 mm Hg 49%
01:00 +18°C° 0 mm 4 m/s 765 mm Hg 48%
02:00 +18°C° 0 mm 4 m/s 765 mm Hg 47%
03:00 +17°C° 0 mm 5 m/s 765 mm Hg 47%
04:00 +16°C° 0 mm 5 m/s 765 mm Hg 44%
05:00 +15°C° 0 mm 5 m/s 765 mm Hg 42%
06:00 +15°C° 0 mm 5 m/s 765 mm Hg 39%
07:00 +16°C° 0 mm 6 m/s 765 mm Hg 34%
08:00 +18°C° 0 mm 7 m/s 766 mm Hg 30%
09:00 +20°C° 0 mm 8 m/s 766 mm Hg 26%
10:00 +21°C° 0 mm 8 m/s 766 mm Hg 22%
11:00 +23°C° 0 mm 8 m/s 765 mm Hg 19%
12:00 +24°C° 0 mm 8 m/s 765 mm Hg 16%
13:00 +26°C° 0 mm 8 m/s 764 mm Hg 15%
14:00 +26°C° 0 mm 8 m/s 764 mm Hg 13%
15:00 +27°C° 0 mm 8 m/s 763 mm Hg 12%
16:00 +26°C° 0 mm 7 m/s 763 mm Hg 13%
17:00 +24°C° 0 mm 6 m/s 763 mm Hg 13%
18:00 +23°C° 0 mm 5 m/s 763 mm Hg 14%
19:00 +22°C° 0 mm 5 m/s 763 mm Hg 16%
20:00 +21°C° 0 mm 5 m/s 763 mm Hg 19%
21:00 +20°C° 0 mm 5 m/s 763 mm Hg 22%
22:00 +20°C° 0 mm 5 m/s 763 mm Hg 26%
23:00 +19°C° 0 mm 5 m/s 763 mm Hg 29%

Dopodomani, 7 Marzo, Domenica

Tempo Temperatura Precipitazioni Vento Pressione Umidità
00:00 +19°C° 0 mm 4 m/s 763 mm Hg 32%
01:00 +17°C° 0 mm 5 m/s 763 mm Hg 34%
02:00 +16°C° 0 mm 5 m/s 762 mm Hg 35%
03:00 +16°C° 0 mm 5 m/s 762 mm Hg 36%
04:00 +15°C° 0 mm 5 m/s 762 mm Hg 36%
05:00 +15°C° 0 mm 5 m/s 762 mm Hg 37%
06:00 +14°C° 0 mm 5 m/s 762 mm Hg 37%
07:00 +16°C° 0 mm 5 m/s 763 mm Hg 33%
08:00 +19°C° 0 mm 6 m/s 763 mm Hg 30%
09:00 +20°C° 0 mm 6 m/s 763 mm Hg 26%
10:00 +22°C° 0 mm 6 m/s 763 mm Hg 22%
11:00 +23°C° 0 mm 7 m/s 762 mm Hg 18%
12:00 +26°C° 0 mm 7 m/s 762 mm Hg 15%
13:00 +26°C° 0 mm 6 m/s 761 mm Hg 14%
14:00 +27°C° 0 mm 6 m/s 760 mm Hg 12%
15:00 +28°C° 0 mm 6 m/s 760 mm Hg 11%
16:00 +27°C° 0 mm 5 m/s 759 mm Hg 12%
17:00 +26°C° 0 mm 4 m/s 759 mm Hg 13%
18:00 +25°C° 0 mm 3 m/s 759 mm Hg 14%
19:00 +24°C° 0 mm 3 m/s 760 mm Hg 16%
20:00 +22°C° 0 mm 3 m/s 760 mm Hg 18%
21:00 +21°C° 0 mm 4 m/s 760 mm Hg 19%
22:00 +21°C° 0 mm 3 m/s 760 mm Hg 21%
23:00 +20°C° 0 mm 3 m/s 760 mm Hg 22%

8 Marzo, Lunedi

Tempo Temperatura Precipitazioni Vento Pressione Umidità
00:00 +19°C° 0 mm 3 m/s 760 mm Hg 23%
01:00 +19°C° 0 mm 2 m/s 760 mm Hg 25%
02:00 +18°C° 0 mm 2 m/s 759 mm Hg 26%
03:00 +18°C° 0 mm 2 m/s 759 mm Hg 28%
04:00 +17°C° 0 mm 2 m/s 759 mm Hg 29%
05:00 +16°C° 0 mm 1 m/s 759 mm Hg 30%
06:00 +16°C° 0 mm 1 m/s 760 mm Hg 32%
07:00 +19°C° 0 mm 1 m/s 760 mm Hg 28%
08:00 +21°C° 0 mm 1 m/s 760 mm Hg 24%
09:00 +23°C° 0 mm 1 m/s 761 mm Hg 21%
10:00 +24°C° 0 mm 1 m/s 760 mm Hg 18%
11:00 +24°C° 0 mm 0 m/s 760 mm Hg 16%
12:00 +25°C° 0 mm 0 m/s 760 mm Hg 14%
13:00 +27°C° 0 mm 1 m/s 759 mm Hg 14%
14:00 +28°C° 0 mm 1 m/s 758 mm Hg 13%
15:00 +29°C° 0 mm 1 m/s 758 mm Hg 12%
16:00 +28°C° 0 mm 2 m/s 758 mm Hg 14%
17:00 +26°C° 0 mm 3 m/s 758 mm Hg 17%
18:00 +25°C° 0 mm 4 m/s 758 mm Hg 19%
19:00 +24°C° 0 mm 3 m/s 758 mm Hg 20%
20:00 +24°C° 0 mm 3 m/s 758 mm Hg 22%
21:00 +22°C° 0 mm 3 m/s 759 mm Hg 23%
22:00 +21°C° 0 mm 2 m/s 758 mm Hg 23%
23:00 +21°C° 0 mm 2 m/s 758 mm Hg 23%

9 Marzo, Martedi

Tempo Temperatura Precipitazioni Vento Pressione Umidità
00:00 +22°C° 0 mm 1 m/s 758 mm Hg 24%
01:00 +21°C° 0 mm 1 m/s 758 mm Hg 24%
02:00 +20°C° 0 mm 2 m/s 758 mm Hg 24%
03:00 +20°C° 0 mm 2 m/s 758 mm Hg 24%
04:00 +19°C° 0 mm 2 m/s 758 mm Hg 25%
05:00 +19°C° 0 mm 2 m/s 758 mm Hg 26%
06:00 +18°C° 0 mm 2 m/s 758 mm Hg 27%
07:00 +20°C° 0 mm 3 m/s 759 mm Hg 24%
08:00 +22°C° 0 mm 3 m/s 760 mm Hg 21%
09:00 +25°C° 0 mm 3 m/s 761 mm Hg 19%
10:00 +26°C° 0 mm 4 m/s 760 mm Hg 17%
11:00 +28°C° 0 mm 5 m/s 760 mm Hg 16%
12:00 +29°C° 0 mm 5 m/s 760 mm Hg 14%
13:00 +29°C° 0 mm 6 m/s 760 mm Hg 13%
14:00 +30°C° 0 mm 6 m/s 759 mm Hg 12%
15:00 +30°C° 0 mm 7 m/s 759 mm Hg 11%
16:00 +29°C° 0 mm 6 m/s 759 mm Hg 12%
17:00 +28°C° 0 mm 5 m/s 759 mm Hg 14%
18:00 +27°C° 0 mm 5 m/s 760 mm Hg 15%
19:00 +26°C° 0 mm 5 m/s 760 mm Hg 17%
20:00 +25°C° 0 mm 4 m/s 761 mm Hg 20%
21:00 +23°C° 0 mm 4 m/s 761 mm Hg 22%
22:00 +22°C° 0 mm 4 m/s 761 mm Hg 24%
23:00 +21°C° 0 mm 4 m/s 761 mm Hg 26%

10 Marzo, Mercoledi

Tempo Temperatura Precipitazioni Vento Pressione Umidità
00:00 +21°C° 0 mm 3 m/s 762 mm Hg 28%
01:00 +20°C° 0 mm 3 m/s 761 mm Hg 30%
02:00 +19°C° 0 mm 3 m/s 761 mm Hg 31%
03:00 +19°C° 0 mm 2 m/s 760 mm Hg 33%
04:00 +18°C° 0 mm 2 m/s 761 mm Hg 34%
05:00 +18°C° 0 mm 2 m/s 761 mm Hg 36%
06:00 +17°C° 0 mm 2 m/s 761 mm Hg 37%
07:00 +19°C° 0 mm 2 m/s 761 mm Hg 34%
08:00 +21°C° 0 mm 2 m/s 762 mm Hg 30%
09:00 +24°C° 0 mm 2 m/s 762 mm Hg 26%
10:00 +25°C° 0 mm 3 m/s 762 mm Hg 24%
11:00 +26°C° 0 mm 3 m/s 761 mm Hg 21%
12:00 +28°C° 0 mm 3 m/s 761 mm Hg 18%
13:00 +28°C° 0 mm 3 m/s 760 mm Hg 17%
14:00 +29°C° 0 mm 3 m/s 760 mm Hg 16%
15:00 +29°C° 0 mm 2 m/s 759 mm Hg 15%
16:00 +28°C° 0 mm 2 m/s 759 mm Hg 17%
17:00 +28°C° 0 mm 2 m/s 759 mm Hg 19%
18:00 +27°C° 0 mm 2 m/s 759 mm Hg 21%
19:00 +26°C° 0 mm 2 m/s 759 mm Hg 23%
20:00 +25°C° 0 mm 3 m/s 759 mm Hg 24%
21:00 +24°C° 0 mm 3 m/s 759 mm Hg 25%
22:00 +24°C° 0 mm 3 m/s 759 mm Hg 25%
23:00 +24°C° 0 mm 3 m/s 758 mm Hg 25%
Mostrare altro

Abbiamo bisogno del tuo consenso

Meteoprog e i nostri fornitori di servizi possono memorizzare e accedere a dati personali come cookie, identificatori di dispositivi o altre tecnologie simili sul tuo dispositivo e possono elaborare tali dati per personalizzare i contenuti e gli annunci, nonché fornire funzionalità dei social media e analizzarne il traffico.

  • Archiviare e/o accedere alle informazioni sul tuo dispositivo

    Cookie, identificatori di dispositivi o altre informazioni possono essere memorizzati o resi accessibili sul tuo dispositivo per le finalità sopra indicate.

  • Annunci e contenuti personalizzati, misurazione di annunci e contenuti, approfondimenti sul pubblico e sviluppo di prodotti

    Gli annunci e i contenuti possono essere personalizzati in base a un profilo. È possibile aggiungere più dati per personalizzare meglio annunci e contenuti. È possibile misurare il rendimento degli annunci e dei contenuti. È possibile ricavare informazioni sul pubblico che ha visto gli annunci e i contenuti. Tali dati possono essere utilizzati per sviluppare o migliorare l'esperienza, i sistemi e il software dell'utente.

Cliccando su “Accetto”, acconsenti all'uso di cookie, identificatori di dispositivo, web beacon o altre tecnologie simili. Puoi modificare le impostazioni nel browser del tuo dispositivo.

Per determinati scopi, è possibile fare affidamento su interessi legali, piuttosto che sul consenso. Puoi approfondire questo argomento consultando la nostra Informativa sulla privacy e sui cookie.